RH
23 20 18 17 18 19 20 22 21 22 22 22 22 22 22 21 20 18 18 16 15 14 12 12 13 13 12 10 9 8 8 8 11 12 14 17 16 20 15 8 8 8 8 7 7 8 9 10 10 12 15 18 18 17 15 15 15 15 28 33 30 32 23 18 20 23 24 19 17 14 12 14 15 14 12 13 13 13 13 14 16 14 16 16 16 20 21 23
27 23 19 17 17 17 19 19 19 21 20 21 20 20 20 19 18 17 16 14 14 13 12 13 13 13 12 11 9 9 8 8 11 11 16 22 19 19 15 8 8 8 7 7 9 11 12 12 11 12 14 15 18 17 15 15 13 19 27 26 34 32 16 16 17 16 18 16 16 14 12 13 13 12 12 13 13 14 15 17 16 16 21 20 20 24 24 25
30 27 21 18 16 16 18 17 18 18 18 19 18 18 17 17 17 16 15 14 14 13 13 13 13 14 12 12 10 8 8 8 11 10 16 22 17 16 13 8 8 8 7 8 11 12 12 12 11 12 13 14 16 17 16 17 13 17 24 26 31 25 15 17 15 13 13 13 15 14 12 12 12 11 12 12 12 14 15 17 17 18 22 21 21 24 22 22
30 28 23 19 17 17 17 17 17 17 17 17 17 17 16 17 17 17 16 15 15 14 13 13 14 14 13 13 10 9 10 11 12 10 14 18 14 12 10 8 8 7 7 8 11 13 12 12 10 10 11 13 15 15 16 18 14 14 25 31 26 18 19 17 13 14 12 12 13 12 12 12 13 12 11 10 12 15 14 13 13 13 14 14 16 17 17 15
28 27 24 20 17 17 17 17 16 16 17 17 18 17 17 19 18 18 18 16 16 15 13 13 14 14 13 13 10 10 13 15 16 15 16 16 12 11 10 9 8 8 8 8 9 11 12 10 9 9 9 11 15 15 15 16 14 14 19 22 18 15 19 17 13 14 12 12 12 12 13 12 13 13 11 11 13 15 12 10 11 10 10 11 11 12 13 13
28 27 24 20 18 18 17 17 18 17 18 18 18 17 18 19 19 19 18 17 16 15 14 13 14 14 13 14 10 11 16 18 19 20 20 15 12 12 10 10 9 9 8 7 8 10 11 10 9 10 9 12 16 15 14 14 13 16 17 16 16 15 18 18 14 14 13 13 13 14 14 13 13 13 13 11 12 13 12 11 11 11 11 10 11 11 12 12
27 26 24 21 19 18 18 18 19 19 19 19 18 18 19 19 19 19 18 18 16 15 15 13 14 14 13 14 9 10 16 19 18 19 20 15 12 13 11 11 10 9 9 9 9 9 11 11 10 10 9 11 13 13 14 13 13 15 16 16 17 16 17 18 15 14 14 13 15 15 14 14 14 14 14 13 11 12 12 13 11 12 12 12 12 12 11 12
25 24 24 21 20 19 18 18 18 19 19 19 19 19 20 20 19 19 18 17 16 16 14 14 15 13 14 13 10 12 14 15 18 17 17 15 13 14 13 12 11 10 10 11 11 13 13 12 11 10 11 11 10 13 12 11 11 13 15 17 19 17 17 17 15 14 14 15 15 15 14 14 14 14 15 13 12 11 12 12 12 12 12 13 13 12 13 12
25 23 24 21 21 19 18 18 18 19 19 19 20 20 20 20 19 18 18 17 16 15 14 15 14 13 14 11 12 18 16 15 19 16 14 14 14 14 13 12 11 11 13 15 16 17 16 13 12 11 11 11 10 13 12 11 12 13 15 17 18 18 18 17 16 16 15 15 15 15 16 15 14 15 15 13 11 12 12 12 13 13 13 13 13 13 13 12
29 24 25 23 20 19 19 18 19 20 19 20 20 20 20 19 19 18 17 16 16 15 15 15 13 13 14 12 14 20 21 21 19 15 15 15 14 14 13 13 13 14 16 17 17 19 17 14 14 12 11 11 12 15 13 13 15 15 17 18 17 18 17 17 17 16 17 17 15 17 19 17 15 16 17 13 11 12 13 13 13 13 14 13 13 13 13 12
35 25 24 24 21 20 20 19 19 20 20 20 20 20 20 19 19 17 16 16 15 15 15 14 13 13 13 13 16 19 23 24 18 14 15 15 15 15 15 15 17 19 19 18 17 17 16 15 15 12 11 11 14 16 14 16 17 16 17 18 19 19 17 18 19 17 18 19 16 18 20 18 17 19 17 12 11 12 11 13 13 14 14 14 14 13 13 13
39 26 23 23 22 20 20 20 20 20 20 20 19 19 19 19 18 17 16 15 15 15 15 14 12 13 13 11 14 19 23 21 16 15 16 17 17 17 16 16 18 20 21 18 17 16 15 15 14 12 11 12 16 16 15 17 16 15 17 21 21 21 21 19 19 18 18 20 18 17 17 18 22 20 12 11 13 13 11 13 13 13 13 14 14 14 14 13
38 27 23 22 21 21 20 20 19 19 19 19 19 19 19 19 17 16 15 14 15 15 15 13 11 13 12 12 13 16 23 22 15 16 17 18 18 16 15 15 16 19 21 19 18 16 13 14 13 13 13 14 16 15 17 17 16 17 17 22 26 22 25 22 18 20 19 20 18 14 16 23 26 19 10 12 15 13 13 13 13 13 13 13 14 15 15 14
35 26 22 20 21 21 20 20 19 19 18 18 19 19 19 18 16 14 13 13 15 14 13 11 11 12 11 19 22 17 21 21 14 17 18 18 17 16 15 14 14 16 17 18 18 15 12 14 13 14 16 15 16 15 19 18 18 21 17 26 34 28 30 26 19 22 20 20 18 15 21 25 22 16 11 13 14 14 15 14 14 14 13 14 15 15 15 15
31 25 21 20 21 20 20 20 19 18 18 19 19 19 18 16 13 10 9 11 13 12 11 10 11 13 13 20 26 21 22 18 15 18 18 17 16 15 16 14 14 13 14 17 18 14 12 14 13 15 17 15 17 19 22 22 20 22 22 33 38 32 34 28 19 22 21 22 19 17 26 28 21 18 16 15 15 14 14 14 15 15 15 15 15 15 15 15
31 26 21 20 20 20 20 19 19 18 18 18 18 17 15 12 9 8 8 9 10 9 9 11 12 17 17 20 25 25 23 18 16 18 17 17 16 16 16 15 15 13 13 18 19 15 14 15 15 16 17 18 24 30 32 31 30 30 29 38 39 33 35 30 24 23 21 24 22 17 25 27 21 19 18 17 17 16 16 15 15 15 16 16 15 15 16 16
31 27 22 20 20 20 20 19 19 18 18 17 15 13 10 10 8 8 9 8 10 10 14 18 15 17 19 24 30 26 22 19 16 18 18 17 17 18 19 20 18 15 16 19 19 18 16 16 18 18 18 21 28 38 42 36 36 37 29 33 40 33 33 34 29 23 22 25 26 23 26 27 23 19 17 17 17 17 16 15 14 14 14 15 16 15 15 16
29 26 23 21 20 20 19 18 18 16 16 13 11 11 10 10 9 9 10 9 12 14 20 25 20 21 23 24 29 23 19 19 15 18 19 17 20 21 23 23 20 20 19 20 21 20 19 17 23 28 24 21 24 37 55 50 41 42 33 32 38 31 31 35 30 25 26 26 27 28 29 29 27 23 19 17 17 17 17 15 14 14 13 13 15 15 15 16
29 26 24 22 20 19 18 17 17 15 14 12 12 12 11 12 12 12 13 13 17 18 23 26 23 26 27 20 22 21 19 20 17 18 19 19 22 22 24 24 22 23 21 24 25 18 21 23 28 37 31 25 24 28 48 50 38 38 41 40 39 33 30 31 29 28 28 27 29 30 29 29 27 25 22 18 17 17 17 17 16 15 14 14 14 14 14 14
35 30 26 24 21 20 20 19 18 16 14 13 12 12 15 21 28 30 26 19 19 23 25 24 20 23 23 18 21 25 22 23 20 17 19 20 22 24 25 25 24 25 27 35 31 19 30 39 35 43 40 30 28 25 31 34 27 29 35 36 35 34 30 29 32 32 27 24 29 32 30 30 26 24 22 16 16 17 17 17 17 16 15 15 14 13 13 13
43 38 31 28 26 24 24 23 22 20 18 15 13 17 21 25 33 35 29 22 18 24 28 23 20 22 22 20 24 26 23 26 24 17 20 21 23 25 26 28 29 33 36 35 31 25 37 49 44 46 43 29 24 25 24 24 25 31 37 38 38 37 29 29 33 31 27 23 30 36 29 27 26 22 20 18 18 18 17 17 16 15 15 14 14 14 13 13
57 47 40 33 31 30 29 28 27 25 22 18 18 28 29 24 30 27 21 21 17 21 29 26 24 25 26 25 27 26 23 30 31 22 21 22 25 26 27 32 33 37 37 30 34 37 40 51 50 42 35 27 24 26 26 28 36 41 41 40 43 41 30 32 35 32 31 26 30 40 34 27 27 24 22 20 21 18 14 15 14 13 14 14 13 13 13 12
78 63 50 41 36 34 33 33 31 29 25 20 24 33 30 25 30 26 21 22 19 20 27 29 28 25 28 30 28 26 22 28 33 26 21 24 27 26 28 31 31 37 36 33 41 41 40 46 42 32 26 24 25 28 33 33 37 44 41 37 44 45 34 33 33 28 29 27 28 39 39 32 27 29 30 23 20 20 16 15 14 14 13 13 12 11 11 11
95 82 66 52 44 39 36 35 33 32 27 21 28 33 28 28 30 26 24 26 27 28 24 25 28 24 26 28 24 25 25 23 26 26 22 25 27 26 29 29 30 37 36 36 40 38 41 39 30 26 27 31 28 29 38 33 29 40 46 47 44 39 34 34 35 32 34 37 38 39 37 37 37 36 33 23 18 17 15 15 14 13 12 11 11 10 10 10
100 96 86 71 60 50 42 38 35 34 30 25 31 32 26 31 30 24 27 27 31 34 26 24 27 24 24 23 23 27 28 26 25 23 21 25 28 28 30 24 27 38 37 35 35 34 37 31 27 27 28 37 34 31 41 39 31 31 40 47 38 35 38 39 43 40 39 43 42 37 36 47 51 38 26 18 15 13 11 15 14 11 11 11 11 10 9 10
100 100 98 87 77 68 55 51 41 34 33 28 30 31 26 31 30 23 30 38 39 36 30 27 25 24 24 22 25 26 27 32 32 24 22 27 28 28 31 27 27 34 32 30 33 35 35 31 36 37 35 42 37 32 39 42 38 27 35 49 43 47 49 45 48 42 41 45 39 39 43 47 41 23 18 16 13 15 13 14 14 9 10 10 9 10 10 10
99 101 100 93 90 80 67 67 55 39 39 31 28 32 26 30 32 24 33 50 49 36 31 30 23 23 26 24 24 25 29 38 38 30 27 31 30 26 31 32 28 27 27 32 37 37 37 37 41 44 50 52 40 33 35 39 40 33 44 57 48 46 46 49 56 46 46 51 50 58 52 43 38 19 15 19 16 21 19 15 15 11 10 9 8 10 11 12
95 98 101 99 97 87 76 77 63 47 49 41 31 30 25 28 30 28 43 54 44 32 31 30 25 25 26 24 23 26 33 37 37 36 31 32 32 27 30 33 31 32 28 33 43 42 42 45 44 45 53 54 44 45 48 44 43 42 53 60 52 49 54 64 67 57 56 48 48 64 46 35 54 40 20 22 20 20 19 15 15 13 12 10 9 11 13 14
74 80 94 99 98 94 87 83 70 58 59 50 36 29 25 29 29 33 48 47 31 29 32 29 30 32 29 28 28 30 35 34 36 41 34 33 34 27 29 29 27 30 27 35 50 48 45 46 48 49 48 47 50 60 67 55 41 43 53 59 60 63 66 69 70 62 53 42 47 62 44 28 50 51 26 19 22 20 16 16 18 19 17 13 12 14 15 15
64 64 78 91 98 99 93 88 81 72 63 51 39 27 23 31 38 40 43 39 34 36 34 31 36 39 35 35 33 31 39 43 44 44 36 35 35 27 28 25 25 37 44 54 61 53 46 40 42 47 42 46 57 58 62 57 43 44 57 61 60 69 74 73 79 65 38 41 58 62 48 28 37 54 39 20 23 24 19 18 22 27 23 17 17 16 13 12
73 67 68 84 97 96 91 90 90 80 61 46 36 24 28 45 52 49 40 32 41 46 36 34 42 41 37 38 37 36 46 51 46 43 41 40 36 31 30 26 36 55 58 59 61 56 52 44 42 45 40 47 57 50 49 57 59 56 61 60 47 59 80 75 72 59 34 43 62 61 56 39 35 51 45 27 25 24 21 19 21 27 22 16 15 13 12 12
85 78 73 83 96 95 89 89 94 86 60 43 36 27 37 56 56 56 47 28 35 50 44 41 47 43 37 37 37 40 53 56 46 42 48 49 44 41 37 36 48 58 53 54 59 56 57 59 53 46 42 44 50 53 51 59 72 61 49 52 42 42 61 62 60 60 50 51 56 55 52 43 38 38 32 26 23 19 20 17 19 22 19 15 14 14 15 15
93 93 85 77 83 94 93 88 93 93 67 43 39 38 52 65 54 51 50 34 36 49 46 43 45 41 38 38 39 41 48 54 48 42 46 50 48 46 42 43 48 50 55 62 64 59 60 68 63 47 44 43 41 47 47 51 64 52 36 43 46 40 42 48 54 56 54 55 56 51 41 42 45 33 24 23 16 16 18 14 17 19 16 16 15 15 18 18
91 100 96 74 67 79 90 91 90 89 74 51 42 49 61 63 50 44 45 41 43 47 45 46 46 41 36 37 40 41 42 48 48 44 48 51 51 50 47 44 41 48 62 61 60 62 56 61 65 48 41 45 41 40 43 49 53 48 46 43 40 46 47 46 48 46 48 56 56 47 40 47 45 29 27 26 16 17 16 13 17 16 14 15 12 14 17 15
87 96 99 89 80 75 79 92 94 85 72 57 52 57 56 51 53 54 50 49 51 51 47 44 44 44 41 38 39 39 43 52 50 46 52 53 52 54 48 42 38 44 51 45 53 61 47 52 65 47 37 45 45 39 39 45 47 49 54 44 37 49 51 50 59 60 56 53 50 49 52 57 44 27 26 24 19 19 13 11 15 13 14 13 11 13 13 13
84 89 94 99 99 85 73 81 98 95 74 62 68 66 52 54 67 61 50 52 52 51 50 45 47 50 45 46 47 37 41 57 54 48 53 51 48 50 46 40 37 35 34 32 49 59 46 54 64 48 41 46 42 40 37 36 41 48 51 46 51 58 49 45 54 57 48 39 43 49 47 46 37 25 23 19 18 19 14 13 11 10 12 10 9 12 13 18
85 87 88 95 100 96 82 76 93 103 84 71 80 75 62 69 79 70 63 60 49 46 52 53 55 54 49 54 60 46 42 55 53 47 54 53 47 47 43 39 33 31 30 23 34 53 53 58 65 57 52 48 39 39 41 40 42 51 54 46 47 53 53 53 51 51 47 39 47 49 33 29 28 26 28 24 18 18 18 17 12 10 11 9 10 11 15 23
81 88 84 86 91 97 96 88 92 98 90 83 88 87 81 79 76 74 75 68 53 48 54 57 56 53 52 55 60 54 46 51 53 50 54 53 47 43 38 36 33 30 28 19 22 38 42 43 57 66 64 56 47 43 46 48 45 51 57 49 50 57 59 57 48 48 50 44 49 50 35 30 29 26 24 18 15 18 18 18 17 14 12 11 12 11 16 22
57 70 70 73 81 91 96 95 95 97 95 95 95 94 93 84 71 68 72 71 63 52 54 65 62 50 50 54 57 56 49 50 57 55 52 48 46 43 34 31 35 31 26 22 25 37 39 32 45 66 69 61 53 50 54 58 53 54 51 44 55 66 63 58 51 50 51 44 44 41 32 30 30 28 23 16 16 17 15 19 20 17 14 14 14 13 16 19
43 58 63 63 69 82 91 94 97 99 98 99 97 93 91 85 71 60 62 71 73 63 62 77 73 55 54 58 58 56 51 54 60 55 51 47 44 44 37 29 34 35 27 23 28 37 36 29 40 62 70 65 60 56 53 54 55 56 50 47 52 55 56 59 54 50 47 43 47 41 30 33 35 28 21 17 19 22 23 28 25 18 17 18 19 19 18 17
59 67 69 67 64 75 91 98 99 97 97 99 96 91 88 83 75 65 60 66 75 75 73 78 78 73 73 69 68 66 56 56 62 57 50 46 42 44 40 31 32 35 32 30 35 35 32 39 59 75 74 68 69 64 51 45 50 50 49 51 50 49 54 55 52 53 47 43 54 48 32 32 30 21 19 22 26 28 27 26 24 18 16 19 23 20 17 15
72 66 70 77 73 78 93 101 95 92 98 98 88 84 84 82 79 74 66 67 75 78 75 73 74 79 83 79 80 82 67 57 64 61 51 48 49 46 40 32 29 32 34 36 37 33 38 57 72 79 77 67 65 67 59 49 48 48 48 48 45 49 53 49 51 59 51 47 57 53 38 29 21 19 27 29 27 24 20 18 18 16 13 15 18 16 15 15
77 67 75 82 75 79 95 100 97 96 97 88 78 78 80 81 83 81 74 73 77 77 76 75 72 70 74 76 79 85 78 67 70 70 63 63 60 48 38 32 31 34 36 40 40 32 36 51 55 60 73 72 69 73 70 60 53 52 56 54 49 52 53 53 62 65 58 52 50 50 47 34 21 23 26 22 20 18 17 16 15 14 14 14 16 16 16 16
74 70 79 82 77 84 96 95 94 99 96 84 81 82 79 78 82 83 83 80 77 77 75 75 71 66 68 72 73 78 77 70 71 72 68 67 60 47 39 32 34 41 41 43 44 33 36 51 52 54 66 73 79 82 73 66 62 63 70 65 52 49 49 54 60 56 56 61 55 52 50 35 26 32 30 26 26 20 17 18 16 16 17 17 18 18 17 17
75 71 72 76 85 94 98 91 87 94 94 88 89 87 82 82 79 77 81 79 72 73 73 71 67 65 72 76 74 76 76 70 71 74 72 71 64 54 45 36 34 41 43 40 35 33 50 63 56 53 59 63 77 87 80 74 71 69 73 67 55 53 50 51 58 55 54 62 61 55 46 32 27 32 33 34 33 25 22 23 21 21 20 19 20 19 19 20
80 78 71 72 86 97 101 97 93 94 92 90 93 89 84 87 81 73 76 76 70 68 69 69 66 69 79 83 79 79 78 74 72 75 81 83 75 65 55 45 38 36 39 37 32 44 67 69 53 51 55 56 68 81 80 74 69 64 66 63 60 62 57 55 64 63 52 53 56 51 45 38 32 29 29 31 31 30 29 25 21 21 21 21 22 21 22 22
86 83 76 78 91 99 99 99 100 98 92 88 86 83 85 88 83 80 81 78 71 67 67 69 68 73 81 81 82 82 79 80 78 75 80 82 77 69 58 50 45 40 38 35 37 57 72 66 59 61 64 66 70 70 68 65 61 59 64 64 61 65 67 63 61 54 49 54 56 47 44 46 39 30 29 31 31 34 34 27 22 22 22 23 24 23 23 23
94 83 68 69 86 96 94 94 97 96 94 90 81 73 81 89 87 88 89 82 74 71 74 78 74 75 77 75 81 87 84 88 88 79 76 76 78 76 68 62 57 50 50 48 50 69 77 68 65 65 65 71 71 66 67 69 64 62 66 68 65 67 72 70 62 54 56 61 54 45 50 53 44 35 33 32 31 31 31 28 26 26 26 25 25 24 25 25
98 92 72 62 74 80 78 79 87 95 96 95 89 76 76 86 87 84 83 85 86 78 77 85 82 78 79 76 78 86 88 90 90 85 80 79 81 83 81 79 70 58 61 65 64 69 71 69 70 65 63 69 70 70 72 72 72 71 70 72 72 72 73 71 65 60 62 66 61 58 63 60 47 40 39 35 31 30 30 30 30 30 29 28 27 27 27 27
96 96 78 66 66 64 66 72 84 95 93 91 96 84 71 76 81 78 75 82 92 87 80 84 82 78 81 80 78 83 81 79 81 82 80 80 83 83 81 80 76 69 70 72 71 69 66 73 81 76 73 74 71 74 78 78 80 79 76 76 75 73 74 73 70 67 67 70 67 64 68 61 46 40 37 33 32 33 33 33 32 32 31 31 31 30 29 29
90 88 78 79 76 64 68 76 82 94 96 91 94 86 74 75 73 70 70 71 76 81 80 82 82 79 80 81 80 81 74 70 75 76 71 72 75 75 74 75 76 77 80 80 79 76 74 81 86 85 89 86 76 79 83 81 84 87 86 84 78 76 77 74 72 71 68 67 67 69 71 61 44 38 39 37 37 38 38 36 35 34 34 34 34 32 31 30
88 88 83 90 91 76 74 80 82 92 94 84 82 79 74 72 66 63 65 66 67 68 68 72 78 80 84 86 81 74 66 65 71 71 67 67 69 69 73 75 73 74 80 84 85 82 83 89 91 92 96 89 79 85 87 84 91 96 88 78 74 74 74 72 72 70 65 64 68 69 63 51 43 44 46 45 42 41 40 38 36 36 36 35 34 33 32 31
Wind_Speed
17 19 19 19 20 21 21 21 20 19 18 16 15 14 13 12 11 10 9 9 9 8 8 9 10 10 8 6 5 5 5 6 7 8 10 9 9 8 5 7 9 9 8 8 8 8 8 8 6 8 10 7 3 3 5 6 4 2 2 4 1 1 1 3 4 5 6 4 6 11 12 8 5 6 8 7 7 9 8 7 7 7 7 5 6 9 9 10
16 17 19 20 19 20 20 21 20 19 18 17 15 14 13 12 11 10 10 10 9 9 8 9 10 10 8 6 5 5 4 6 6 9 10 8 9 8 5 8 9 8 8 9 9 9 8 7 6 7 8 7 4 4 5 4 5 2 2 3 3 3 1 4 1 5 6 9 11 13 13 7 6 11 10 4 5 9 7 6 8 8 9 8 10 12 10 11
16 16 19 20 19 20 20 21 20 19 18 17 16 15 14 13 12 11 10 10 9 9 9 9 10 10 9 6 5 4 5 6 6 9 10 8 8 8 7 8 9 8 8 9 10 9 6 4 6 9 7 7 6 6 5 3 4 2 3 3 4 5 2 7 6 5 8 16 14 12 12 5 7 13 11 6 5 7 7 9 9 10 12 13 14 14 13 12
17 17 19 20 20 20 20 21 20 19 18 17 16 15 14 13 12 12 11 10 9 9 9 9 10 10 9 7 5 5 5 4 5 8 9 7 7 9 9 9 9 8 8 10 9 7 5 4 6 10 7 6 7 6 5 5 4 2 3 4 4 3 3 5 6 7 8 17 16 12 9 6 8 12 10 7 5 3 10 15 12 12 15 16 17 16 15 13
17 18 19 20 20 20 20 20 20 19 18 17 16 15 13 12 11 11 10 10 9 9 9 9 9 10 9 8 6 6 5 2 3 8 8 7 7 9 10 9 9 8 8 9 8 6 6 5 5 7 5 4 6 5 4 7 6 2 2 4 2 3 3 2 3 8 9 14 13 11 8 7 9 9 9 8 5 4 10 17 16 14 14 15 17 18 17 15
17 18 19 20 20 20 20 19 19 18 17 16 15 14 13 12 11 10 10 9 9 9 9 9 9 10 10 9 7 7 7 2 0 6 9 8 8 9 10 9 9 8 9 8 7 8 8 6 3 4 3 2 6 5 4 9 8 2 1 4 6 3 4 2 2 6 8 12 11 8 6 8 8 5 7 9 8 5 4 8 11 11 14 15 16 18 19 17
17 18 19 20 19 19 19 18 18 18 17 16 15 14 13 12 11 10 10 9 9 9 9 10 10 10 11 10 7 7 8 4 1 3 9 9 8 9 10 10 9 8 9 8 8 8 6 4 3 5 2 1 5 5 5 9 8 4 1 2 6 4 5 3 4 6 7 9 8 7 7 7 6 3 4 9 11 8 5 3 4 4 9 16 18 17 17 16
18 19 20 19 19 19 19 18 18 17 17 16 15 14 13 12 11 11 10 10 9 9 9 10 10 11 11 10 8 6 8 6 1 3 9 10 9 10 10 10 10 8 9 9 8 7 4 3 5 6 2 1 6 6 6 6 2 3 2 2 5 4 4 3 4 6 5 6 6 6 5 4 4 3 4 9 12 12 11 9 9 5 6 15 17 16 15 15
18 19 19 19 19 19 19 19 18 17 17 16 15 14 13 12 11 11 10 10 10 10 10 11 11 11 11 11 7 4 6 7 3 5 9 10 10 10 11 11 11 9 10 9 8 6 3 2 2 4 2 1 6 6 5 5 0 2 5 5 6 4 5 5 4 6 5 4 4 4 2 2 3 3 6 13 14 15 16 12 12 10 8 13 15 15 15 14
17 18 18 19 20 20 20 20 19 18 17 16 15 13 12 12 11 10 10 10 10 11 11 11 11 12 12 10 7 3 4 7 6 6 9 11 11 11 11 11 10 10 9 8 8 6 4 2 2 0 0 1 5 4 3 5 1 5 10 8 7 5 5 4 3 6 6 3 3 4 1 1 4 2 6 11 9 12 18 16 14 13 13 14 15 15 15 15
16 17 18 19 20 20 20 20 19 18 16 15 14 13 12 12 11 10 10 10 11 11 12 12 12 12 12 10 8 5 3 6 8 8 10 11 12 12 11 11 10 10 8 7 9 8 6 3 1 2 2 1 4 4 4 6 6 12 14 7 4 4 3 3 4 6 5 3 3 3 1 1 4 3 11 15 9 9 15 19 18 17 16 15 15 16 16 17
16 18 19 19 19 20 20 19 19 18 16 15 14 13 12 12 11 11 11 11 11 12 12 12 12 12 12 10 11 7 3 6 9 10 12 12 12 12 11 11 11 9 6 7 8 7 6 4 2 2 2 4 3 3 4 5 8 12 10 4 0 2 1 5 6 6 4 2 3 2 2 3 3 8 17 17 12 10 12 18 20 19 18 16 16 17 18 18
17 18 19 19 19 19 19 19 19 18 17 15 14 13 12 11 11 11 11 11 12 12 13 13 12 13 11 8 10 9 4 7 11 12 14 14 13 12 11 11 10 8 6 6 6 6 7 5 4 4 4 5 3 4 5 5 8 7 4 4 2 5 4 8 6 5 4 3 3 2 1 6 5 14 19 14 12 14 13 18 20 19 18 17 17 17 18 18
17 18 19 19 18 19 19 18 17 17 16 15 14 13 11 11 11 11 12 12 13 13 13 13 13 13 11 5 5 8 7 9 12 13 14 14 13 12 10 9 9 8 6 4 5 6 8 7 6 5 6 7 7 8 5 4 4 2 1 3 3 2 4 6 4 6 4 2 4 5 1 6 7 14 16 11 12 16 16 18 18 17 17 17 17 17 18 18
16 18 19 18 18 18 17 17 17 16 16 15 13 12 11 11 11 12 13 13 13 13 13 14 14 12 9 4 4 8 9 11 13 14 15 13 12 11 9 8 8 7 6 5 6 7 8 9 6 6 8 9 9 7 3 3 2 2 2 3 3 3 3 6 3 8 5 3 4 5 1 6 8 10 8 4 12 14 16 17 15 16 16 17 19 19 19 18
15 17 18 18 18 17 16 16 15 15 15 14 13 12 12 11 12 12 13 13 13 14 14 13 14 11 6 4 5 9 12 13 14 15 14 12 11 9 8 7 7 8 8 6 7 8 9 8 6 7 8 7 6 5 5 4 4 3 3 2 3 2 2 4 2 5 4 3 2 1 2 4 4 3 3 3 10 12 14 15 14 15 16 17 19 20 21 19
15 15 17 18 18 17 16 15 14 14 13 13 12 12 12 11 12 12 13 14 13 14 13 11 13 11 3 4 7 10 14 14 15 16 14 12 10 9 9 8 8 9 9 8 7 8 8 7 6 5 4 3 3 5 5 3 3 3 1 2 4 3 4 2 3 3 3 4 1 1 2 5 7 7 8 5 7 9 12 15 15 15 15 16 18 20 22 22
15 15 16 17 17 16 15 14 14 14 12 12 12 12 12 12 12 13 13 14 13 13 11 9 12 7 4 7 9 10 14 14 16 17 15 12 11 12 11 9 10 11 11 9 6 7 6 4 5 3 2 3 2 6 4 3 4 4 3 2 3 3 4 4 3 3 1 3 1 1 3 8 10 12 17 16 13 13 17 20 21 21 20 19 19 21 22 23
15 15 16 17 16 16 15 14 14 13 13 13 13 13 13 13 12 12 13 14 14 10 5 10 15 5 2 11 13 11 15 15 16 18 16 14 13 13 12 10 11 11 9 5 3 4 5 4 4 3 1 2 3 5 6 7 7 7 6 4 3 2 3 4 2 3 1 3 3 5 6 9 9 11 14 19 20 18 22 24 26 26 25 23 23 25 26 27
15 15 15 15 16 16 14 14 14 13 15 14 16 16 13 12 9 5 11 15 15 6 1 12 18 4 1 13 18 15 15 15 16 19 18 16 15 13 12 11 10 6 4 4 3 2 3 4 2 3 5 6 6 7 7 5 6 6 5 3 2 3 1 4 2 5 2 2 4 5 5 9 9 10 12 19 20 16 19 23 26 28 28 28 28 28 30 31
13 13 14 14 15 15 15 15 14 14 16 16 19 16 11 12 7 3 10 12 15 7 2 10 19 6 1 11 19 17 16 14 16 20 19 18 17 13 10 9 6 2 1 5 4 1 3 3 4 7 8 8 7 6 6 4 5 5 5 4 2 2 1 2 1 5 4 2 4 3 5 10 10 9 14 17 14 13 18 21 25 29 29 29 29 30 31 31
12 12 12 13 13 14 14 15 14 15 17 18 20 13 10 14 9 8 12 7 13 13 3 8 16 8 3 9 17 17 13 10 11 18 20 19 17 11 9 7 4 3 2 5 5 4 3 1 7 9 7 5 2 4 7 5 6 5 3 4 2 1 2 2 3 4 2 2 4 5 6 11 10 9 14 16 15 18 25 26 28 30 29 30 31 33 34 33
10 11 11 11 12 13 13 14 15 16 18 20 19 11 11 14 9 11 13 4 8 16 10 9 12 11 10 12 16 16 11 8 9 17 20 20 18 12 11 8 4 4 3 4 6 4 2 5 8 7 6 7 5 4 8 6 4 4 4 5 1 3 1 2 4 4 1 1 2 4 5 10 9 6 10 17 20 21 25 27 30 30 30 32 33 34 35 34
10 9 9 11 11 12 12 13 15 16 19 22 18 10 11 14 8 11 12 2 1 11 13 12 10 13 13 12 16 15 10 8 9 18 23 22 18 11 10 9 6 5 4 5 8 6 4 6 3 1 4 7 5 4 6 5 1 2 3 5 3 2 2 2 2 3 2 3 3 4 5 7 5 4 6 10 12 13 16 18 22 26 27 29 31 32 33 33
11 9 8 10 11 11 12 12 13 15 18 22 18 10 10 12 8 9 10 1 2 5 10 13 10 11 14 11 15 14 9 7 8 17 24 23 18 10 7 9 6 4 6 7 8 5 5 4 1 3 4 6 7 3 3 6 2 3 1 4 5 5 5 2 3 5 5 5 4 4 4 6 5 5 7 7 6 9 13 12 16 21 21 23 28 30 30 29
12 11 9 9 10 11 11 10 12 14 16 20 20 12 9 8 7 9 8 3 3 2 5 11 9 10 14 13 17 15 6 3 8 18 25 21 17 10 5 6 4 3 7 6 5 2 2 1 2 5 5 6 7 2 3 6 5 1 3 4 4 7 6 4 4 4 2 3 3 4 3 5 8 7 7 6 5 9 12 11 17 22 21 23 28 29 28 25
10 14 12 10 10 10 9 9 12 13 13 16 20 16 8 6 8 8 6 5 3 4 6 8 9 10 12 13 19 13 3 6 8 15 24 19 15 11 5 4 3 3 4 4 2 1 2 3 4 5 6 6 5 2 4 6 7 2 4 4 5 7 6 5 6 3 2 2 4 4 4 2 8 6 4 2 4 8 10 12 16 21 24 26 28 27 24 20
7 12 15 13 11 10 9 10 13 14 12 12 16 17 11 6 8 8 5 3 2 5 5 7 8 10 12 16 20 11 8 14 9 10 22 18 13 9 4 5 5 5 3 6 4 3 1 5 5 5 5 3 4 4 4 6 6 4 6 4 6 7 6 5 6 3 1 2 5 4 2 2 6 7 1 2 4 8 11 12 12 17 22 23 22 20 14 10
7 8 13 16 13 11 10 11 14 15 12 10 12 15 12 9 8 5 4 1 3 3 3 8 9 10 13 15 13 9 11 10 4 10 21 16 11 7 3 5 6 5 2 6 6 3 0 4 5 6 5 3 4 3 3 4 4 4 4 5 6 5 5 5 5 3 3 2 4 5 3 2 6 8 5 2 2 7 10 10 8 10 13 13 10 7 5 5
11 8 9 14 16 15 12 12 14 13 12 12 12 14 14 10 6 5 3 3 2 2 2 7 8 9 15 11 4 6 8 3 5 14 14 9 9 7 5 5 4 5 3 6 4 1 1 1 1 3 4 5 5 2 3 3 6 6 5 6 7 6 5 4 3 4 3 3 6 7 7 4 4 6 6 3 4 6 6 6 4 4 4 6 7 8 5 3
13 11 9 11 17 18 15 13 13 12 13 14 15 17 14 6 3 4 5 2 1 2 3 3 3 7 14 10 4 4 4 3 6 12 7 5 6 4 5 4 4 5 3 4 3 4 4 2 0 1 3 6 7 5 7 6 6 7 5 5 4 4 4 5 5 4 1 5 6 6 4 5 5 6 5 5 6 6 4 1 1 1 8 14 11 6 3 3
13 14 12 12 14 17 17 15 12 11 13 16 20 20 12 3 0 4 3 1 1 3 4 4 3 6 9 7 5 5 4 3 5 7 5 4 4 3 4 5 3 4 1 3 1 3 3 2 2 2 2 4 6 5 5 6 5 6 5 6 5 2 3 3 3 0 3 6 4 3 0 3 6 7 6 9 10 7 4 4 5 5 8 9 5 1 2 3
14 16 16 15 13 14 17 17 14 12 12 18 21 16 7 2 5 6 3 1 2 3 4 5 5 8 9 6 5 4 4 3 5 5 4 4 5 5 4 4 5 4 2 5 3 1 2 6 2 3 1 4 6 5 3 1 0 4 5 5 5 3 2 3 4 1 4 5 3 2 1 3 5 4 9 13 13 9 3 2 4 5 5 3 1 3 5 5
13 14 17 18 17 15 16 17 16 11 11 18 18 9 4 5 6 5 3 3 1 2 3 5 7 9 9 5 5 6 4 1 6 6 4 4 4 5 5 5 4 3 4 4 3 5 3 4 3 5 3 7 8 6 7 6 4 5 4 6 6 5 5 4 3 3 4 4 3 3 1 3 2 3 7 9 12 15 11 3 4 3 2 1 3 5 6 7
12 13 17 19 20 19 17 17 16 12 12 15 11 5 7 9 4 4 5 3 1 2 3 7 9 8 6 2 4 7 3 2 6 5 4 6 5 6 6 5 6 4 5 5 2 3 4 5 7 4 5 12 10 7 8 7 2 3 3 5 4 5 5 3 3 5 4 1 2 2 3 5 4 6 9 8 11 16 14 9 5 5 3 0 5 5 5 6
12 13 16 17 19 21 21 20 16 15 16 13 6 5 9 5 3 4 3 2 3 4 7 7 5 5 5 2 3 7 3 2 6 4 3 5 3 6 6 5 9 9 7 6 2 2 3 4 5 1 2 7 8 7 7 5 2 2 3 4 5 5 7 4 3 0 3 2 3 2 5 5 3 6 9 7 7 10 12 13 14 12 7 5 6 5 4 3
11 12 14 15 16 18 22 23 18 16 20 16 6 7 5 1 3 3 1 1 4 7 8 5 2 4 5 3 4 7 3 2 5 4 4 4 3 6 7 5 9 12 10 8 4 3 5 2 4 1 3 5 3 4 2 2 4 5 4 6 3 1 3 4 1 3 3 3 4 2 7 5 2 5 6 5 4 7 8 9 15 17 11 10 9 8 6 3
11 11 12 15 16 16 18 20 19 18 18 13 6 7 2 1 4 1 2 1 3 5 5 4 3 4 5 5 4 6 5 4 6 5 4 4 4 7 9 5 8 15 16 11 5 3 5 2 4 1 3 4 1 3 1 4 2 5 4 4 4 2 1 2 2 2 1 3 5 4 5 4 4 5 4 5 6 8 8 7 10 10 7 10 10 11 7 3
8 7 6 10 16 15 12 14 19 18 10 6 6 6 3 2 5 4 0 2 2 4 4 3 2 3 5 5 4 5 5 6 7 6 4 4 4 6 12 8 6 14 19 14 6 3 3 3 4 1 1 2 3 2 5 2 2 2 2 2 2 3 4 3 3 4 4 3 4 4 3 3 6 6 5 8 9 8 8 6 3 1 6 9 11 12 7 1
5 4 2 5 11 13 12 13 17 13 4 2 4 4 3 3 6 11 9 1 3 2 2 1 1 4 5 4 3 4 4 5 7 6 3 5 4 3 8 10 5 9 17 15 7 2 2 3 4 2 3 0 1 4 7 7 4 3 3 3 2 2 2 2 2 2 4 4 3 3 5 6 5 4 7 9 7 5 5 4 4 1 7 7 5 4 2 4
7 3 2 5 7 11 14 13 9 5 2 2 3 2 4 4 5 13 16 9 1 2 2 1 2 3 3 3 2 2 4 4 6 5 3 5 5 2 4 8 8 7 10 10 7 4 3 3 4 2 1 3 6 6 6 9 9 6 6 7 7 5 4 2 3 2 2 4 5 3 6 10 6 4 5 5 5 6 5 3 1 6 9 7 5 4 5 9
7 2 2 8 8 12 15 9 3 3 2 3 4 5 5 4 5 10 14 11 6 1 2 1 1 2 2 2 2 1 4 5 5 6 5 5 6 4 2 4 9 12 9 6 7 6 4 4 4 3 4 5 7 6 2 5 5 3 4 4 5 5 6 6 5 4 1 3 3 4 4 11 5 7 7 6 5 3 1 5 7 9 12 11 8 8 10 11
7 3 4 9 11 13 13 5 2 4 2 3 6 6 6 4 4 7 10 10 8 4 3 1 2 2 1 2 2 2 3 3 3 4 3 3 4 3 2 1 7 11 8 4 5 5 4 3 3 1 3 3 4 5 4 2 2 2 4 2 3 3 4 5 5 4 3 5 4 3 6 11 4 5 5 2 2 4 4 5 6 6 7 7 7 10 13 15
7 4 3 8 13 16 12 4 3 5 2 3 4 5 7 5 5 7 8 9 8 5 4 4 3 4 3 2 4 3 3 2 2 3 2 2 3 2 3 1 4 6 5 3 5 7 6 3 4 3 1 3 4 4 4 4 0 3 4 3 5 5 4 3 2 2 1 6 6 5 8 10 3 4 4 4 5 4 3 4 2 1 3 5 10 14 18 20
5 4 3 7 14 17 10 2 2 4 4 5 4 6 7 4 7 12 10 9 10 7 5 6 7 7 4 3 3 2 3 3 2 2 2 1 2 2 3 2 2 4 3 3 6 10 7 3 4 6 6 6 4 3 4 3 1 2 3 5 7 7 8 4 2 2 5 7 7 6 8 12 8 1 4 4 4 4 4 3 1 4 10 15 17 18 18 20
4 3 4 5 10 14 11 5 2 2 3 7 5 5 8 4 5 13 12 9 11 11 7 6 8 8 5 3 3 4 5 4 2 1 2 2 3 3 4 4 2 5 6 6 6 6 3 0 3 6 6 8 6 5 5 4 5 5 6 8 8 8 10 7 4 5 8 7 6 8 10 15 18 10 7 6 0 3 4 7 11 17 20 18 16 18 22 23
4 2 4 5 5 8 9 9 8 3 2 7 5 3 9 7 2 6 8 7 11 12 7 4 6 7 7 8 7 6 7 5 3 5 5 3 1 2 3 4 3 4 6 5 5 5 4 1 2 3 4 6 5 4 2 4 5 7 7 8 7 6 8 9 8 10 8 6 9 13 12 14 20 19 16 10 2 2 7 10 14 18 17 17 21 27 30 30
6 3 5 9 4 3 6 9 11 9 4 3 3 2 7 9 5 5 7 6 8 10 6 4 7 9 10 11 8 5 7 6 4 8 8 4 2 2 3 3 4 2 2 3 3 4 4 2 3 1 3 5 4 3 1 3 2 3 4 6 6 6 7 10 13 13 9 8 11 11 8 10 16 20 17 6 3 7 11 11 14 16 17 22 28 31 32 32
9 5 7 11 6 4 8 8 7 9 7 4 3 3 7 12 11 8 6 4 4 7 7 5 9 11 10 10 8 7 8 8 7 8 5 4 4 2 1 1 3 3 1 3 2 3 4 4 4 2 4 7 6 6 3 2 2 2 4 5 5 7 9 11 13 12 8 8 10 10 10 13 15 15 15 11 9 14 18 19 20 20 21 24 27 29 30 29
13 7 6 8 7 6 8 9 8 7 8 6 5 4 4 9 13 9 6 8 6 5 8 9 10 10 9 8 8 8 9 10 9 8 7 6 5 5 4 3 2 0 1 2 1 1 3 4 3 4 3 9 9 8 6 5 5 5 6 6 6 9 11 10 9 7 6 7 10 12 14 16 14 10 15 25 24 15 16 23 25 26 26 24 23 24 25 25
18 12 7 4 5 5 5 6 7 5 5 6 7 6 5 7 10 9 5 10 13 8 9 13 10 6 7 8 9 9 10 9 6 7 12 12 9 7 5 4 6 4 2 2 2 1 3 2 2 5 4 8 8 8 9 7 4 4 7 10 13 13 11 9 7 6 8 10 11 11 10 12 12 7 11 25 23 11 14 25 28 29 28 21 19 22 24 27
25 19 13 5 2 3 3 3 5 5 6 9 11 11 8 5 6 9 5 9 17 17 17 17 11 6 5 8 13 16 15 10 7 7 10 11 8 7 7 6 8 8 6 4 3 3 4 4 3 4 4 7 6 6 6 3 1 4 10 14 16 15 12 11 9 10 12 11 8 9 10 12 12 8 10 17 17 15 20 26 29 29 25 19 19 23 27 30
Wind_Direction
185 181 182 186 186 181 177 176 178 185 187 188 187 188 191 194 193 192 197 201 203 204 199 193 186 183 177 170 172 172 177 175 171 171 168 174 181 178 192 192 170 166 168 162 150 139 138 138 140 143 150 160 165 191 196 202 204 188 90 93 205 230 93 262 211 165 140 149 174 176 173 149 150 159 132 124 127 134 141 139 137 148 155 146 142 149 155 169
193 186 184 186 189 184 180 178 180 187 189 189 189 191 193 194 196 195 199 201 202 201 196 191 187 185 179 173 175 174 176 177 178 179 173 176 188 190 194 184 173 171 170 162 157 149 137 131 139 145 161 179 179 180 178 187 186 166 107 120 218 204 44 345 145 139 128 155 172 177 179 168 179 177 158 162 161 149 143 142 152 150 151 159 159 165 173 177
199 196 190 187 189 187 183 181 181 186 188 188 189 191 193 193 194 195 196 198 198 197 192 189 188 187 184 181 179 175 176 181 189 187 183 185 192 196 192 184 179 177 171 166 165 157 138 128 165 173 179 193 189 180 173 173 183 183 105 125 241 204 113 18 54 95 136 157 162 172 182 179 181 177 168 177 171 168 176 166 169 175 175 176 174 176 182 186
199 200 197 190 188 188 187 183 182 185 186 186 186 189 192 192 193 195 196 195 195 194 190 188 188 188 189 188 182 179 175 180 201 196 193 193 191 191 185 183 181 178 174 175 175 165 145 123 170 189 196 205 191 179 184 180 184 187 123 162 233 183 113 12 53 71 119 151 159 162 156 141 164 175 177 167 145 221 218 198 198 205 199 192 188 187 189 192
201 201 201 195 189 190 190 186 184 184 184 184 184 187 189 190 193 196 196 194 194 192 189 187 188 190 192 193 189 182 165 136 210 197 193 193 192 189 182 182 181 179 178 181 185 177 169 142 155 194 207 209 171 162 202 190 174 114 111 135 117 126 113 345 63 72 103 139 146 141 126 139 159 172 183 174 162 227 232 218 219 223 217 205 197 195 194 195
203 202 202 199 192 191 191 188 186 184 184 183 184 187 187 188 192 196 197 195 194 191 190 187 188 191 193 195 195 188 174 133 107 188 190 194 193 188 183 184 182 182 180 177 182 175 170 155 161 206 203 189 168 161 186 190 181 129 90 85 71 110 128 135 137 90 107 128 123 118 127 150 154 171 195 203 209 199 199 206 212 220 222 216 204 198 198 199
203 202 201 199 195 193 192 189 188 186 184 183 184 187 186 188 191 195 197 194 193 191 189 188 188 192 193 195 196 199 204 219 351 176 187 190 190 186 183 185 181 181 175 170 173 165 163 169 213 228 187 126 179 168 158 177 175 138 181 86 81 97 112 126 159 123 119 124 118 125 139 149 156 182 206 223 227 214 204 214 233 224 205 210 209 201 200 202
202 202 200 196 194 193 191 190 190 188 185 184 185 187 186 189 193 196 195 193 192 189 189 188 189 192 192 196 195 202 220 233 273 160 177 182 184 181 180 180 176 172 166 168 162 150 172 218 241 235 228 255 183 164 148 149 148 131 147 134 108 95 106 115 140 142 134 124 124 140 153 161 182 218 231 234 230 220 226 243 257 259 186 197 206 201 197 201
202 203 200 194 192 191 189 189 190 190 188 185 186 188 188 191 194 195 196 195 191 188 189 187 189 192 191 196 195 202 227 223 209 169 171 177 179 177 179 175 170 167 164 168 162 156 200 215 261 239 256 258 162 144 140 134 304 173 138 131 121 108 123 120 123 141 140 139 148 158 170 189 204 248 260 249 238 223 225 238 246 243 210 197 200 201 200 204
203 202 202 196 191 190 189 188 188 191 191 187 186 189 192 195 197 198 197 194 191 188 186 186 189 191 191 193 188 200 228 208 203 185 171 176 177 174 173 168 163 162 160 168 173 178 196 161 51 132 166 59 121 109 117 132 137 132 125 122 125 132 145 143 147 143 139 135 147 158 161 224 188 184 258 245 234 223 222 228 234 231 221 212 211 214 217 222
204 200 202 198 192 191 191 188 186 189 191 190 189 191 194 196 198 199 198 194 191 187 185 186 187 189 191 191 190 200 204 190 196 185 170 171 172 169 165 161 157 156 155 167 180 187 192 184 88 116 148 92 99 84 95 113 123 129 123 109 122 144 157 171 162 159 161 130 137 147 90 228 140 160 251 243 234 234 220 219 225 224 223 221 223 227 230 236
205 199 199 199 194 191 192 190 186 187 189 189 192 194 196 197 197 198 197 193 189 186 185 185 185 188 188 195 205 208 197 188 188 174 165 163 163 165 161 158 157 156 157 165 182 194 186 180 157 135 128 135 125 84 103 110 123 135 124 100 323 360 322 217 187 176 183 136 156 116 12 290 172 215 253 258 241 233 214 212 218 222 228 230 232 235 236 241
205 197 196 197 194 191 193 192 188 187 187 187 191 195 197 199 197 195 194 191 187 184 185 184 184 185 183 198 214 214 218 197 184 168 163 162 160 163 162 161 159 158 161 163 175 183 177 172 155 128 102 128 133 110 127 113 119 144 126 103 86 7 314 235 202 179 163 141 180 111 327 276 257 237 259 281 241 217 208 211 215 222 231 234 236 237 238 241
201 193 191 192 192 192 192 192 190 187 185 186 189 193 198 199 198 195 192 189 186 183 184 183 181 182 184 194 213 211 209 191 183 172 164 164 164 163 163 166 165 162 158 153 161 165 166 159 139 113 100 123 127 118 109 69 102 145 73 70 90 98 284 267 197 169 146 182 192 110 170 260 279 269 284 294 226 208 209 213 216 222 228 234 237 239 241 240
195 188 186 188 190 190 191 191 191 187 186 185 187 190 193 196 197 194 192 188 184 182 181 182 180 179 185 197 200 194 190 184 182 175 168 167 168 164 163 168 173 170 157 142 149 153 160 160 143 110 107 120 121 112 71 21 21 58 88 320 338 146 261 306 202 178 164 211 199 119 153 266 285 294 316 275 208 206 215 219 222 227 233 238 242 242 243 244
187 185 183 184 184 185 188 190 191 189 186 184 184 187 189 192 193 191 191 187 183 181 177 179 182 174 171 199 193 180 181 184 182 177 174 171 170 162 156 163 168 170 163 145 144 147 155 154 132 115 116 123 116 95 62 35 345 2 105 232 283 164 234 306 279 208 167 150 217 178 194 262 288 307 33 143 196 207 218 229 235 239 245 245 245 245 242 243
173 177 179 178 179 182 185 186 188 188 186 184 181 182 182 183 185 185 186 184 181 175 169 175 180 176 189 201 181 180 183 182 180 180 176 172 169 151 145 150 152 160 157 146 145 147 148 135 121 126 114 98 97 88 73 36 306 307 44 229 246 192 176 239 280 255 132 111 222 268 214 247 269 276 283 264 220 223 231 243 252 252 250 246 245 245 242 240
160 165 168 170 172 176 179 180 181 183 183 179 175 174 174 173 177 179 180 180 172 161 162 168 163 167 239 207 182 185 187 181 179 178 172 169 162 146 140 135 138 147 145 141 143 140 138 112 103 102 37 23 73 96 107 201 201 204 206 217 257 221 183 208 245 254 107 96 222 259 260 259 267 274 274 270 260 251 250 255 259 258 255 250 243 240 242 242
150 155 159 162 165 169 173 175 175 178 175 170 167 164 162 160 161 169 176 175 165 151 164 175 163 149 240 193 184 185 184 179 175 174 171 165 157 150 141 131 140 141 130 133 140 139 133 84 76 90 129 226 203 146 168 200 172 167 181 172 188 192 228 241 250 288 90 111 233 233 244 260 267 274 274 274 270 256 253 257 257 256 255 252 247 244 247 248
141 148 156 159 161 165 166 169 171 171 169 166 163 157 152 148 135 149 177 176 170 153 14 181 177 168 86 175 180 177 172 173 174 174 172 167 159 153 143 139 147 132 111 152 165 169 124 92 132 187 192 208 215 185 179 183 144 135 127 110 163 152 281 276 273 311 356 108 251 246 255 270 270 273 274 276 277 262 251 251 251 253 253 251 250 250 251 251
136 143 153 158 161 163 163 166 168 168 168 166 161 153 151 157 139 153 176 180 184 181 6 182 184 192 79 177 179 169 160 165 177 178 173 169 161 153 153 148 135 117 225 153 126 81 92 106 212 217 202 198 213 190 149 114 89 94 106 82 29 129 194 258 276 308 358 74 271 309 314 279 269 271 274 274 274 261 250 246 249 252 251 251 252 253 254 256
129 138 149 158 163 164 166 167 168 171 170 165 160 150 154 167 167 174 169 176 197 201 243 181 186 196 163 173 176 166 155 152 174 181 174 168 165 163 167 149 117 162 182 115 98 53 64 196 239 232 205 153 111 111 105 92 82 78 96 94 16 277 194 289 323 310 15 99 273 343 339 284 271 263 267 265 254 254 255 250 251 253 253 253 254 256 259 259
120 130 143 156 164 168 171 170 170 174 173 169 163 148 153 168 170 174 168 139 196 208 220 186 186 192 166 162 173 169 160 154 171 180 174 170 171 169 164 149 129 157 134 115 129 107 116 240 250 234 183 117 69 68 84 72 73 81 99 112 256 271 167 278 305 293 274 118 281 344 324 283 281 274 265 264 257 260 265 259 255 255 256 258 260 263 263 262
123 125 136 150 159 168 173 176 177 176 177 175 167 145 149 166 168 172 173 109 169 205 213 197 187 193 181 165 174 173 162 165 178 179 176 174 171 163 168 165 137 143 161 147 139 143 207 253 273 165 123 113 100 67 82 89 31 328 129 140 211 247 138 190 292 318 343 1 5 19 334 292 302 324 289 280 277 277 280 273 261 258 258 260 262 263 262 262
148 138 141 148 152 160 168 177 180 180 183 184 176 145 132 154 157 165 174 63 1 201 205 200 195 200 194 178 178 171 147 156 176 179 179 176 169 155 173 178 149 164 197 160 131 151 232 270 317 118 84 92 107 104 137 136 122 308 218 173 188 161 135 110 14 25 32 347 330 46 3 291 304 313 281 296 317 299 299 293 271 267 265 260 259 260 260 261
177 166 162 159 155 157 160 164 175 184 188 192 191 168 130 133 132 153 160 53 335 216 174 188 194 195 195 186 173 157 132 169 173 177 178 176 175 161 158 177 143 179 192 159 132 156 221 302 82 132 116 87 94 121 215 142 116 265 237 200 168 125 112 89 58 51 68 270 291 70 96 270 299 293 256 269 297 292 299 294 276 273 267 259 259 260 260 262
189 182 178 175 167 162 160 157 169 178 181 195 200 191 171 134 124 143 131 35 292 192 146 177 186 183 189 181 167 153 139 169 151 171 176 174 182 173 168 184 127 182 184 123 132 223 155 118 74 96 97 87 106 171 227 136 118 212 235 179 123 99 109 113 91 84 203 248 324 20 112 214 291 281 210 200 304 299 292 282 276 272 266 262 261 262 262 263
185 184 183 183 177 172 168 162 163 163 169 194 200 197 195 158 138 138 112 48 225 155 140 175 171 174 178 170 169 156 135 151 139 174 176 173 181 173 176 196 164 186 171 115 172 259 131 158 168 130 96 98 162 217 225 125 108 235 225 149 114 112 124 114 96 85 20 20 323 315 102 155 274 278 273 71 322 296 280 270 272 275 275 271 265 264 262 254
201 191 185 183 181 184 182 167 161 161 165 177 184 191 189 161 144 116 92 149 175 114 127 164 160 170 166 158 167 147 130 147 137 168 174 175 179 170 163 191 173 170 116 98 162 234 74 174 186 140 125 177 194 249 241 134 120 207 181 91 67 73 77 76 94 91 38 20 259 243 176 190 268 281 295 357 312 268 270 276 284 296 294 280 258 234 211 219
209 205 192 186 183 189 193 173 164 162 158 158 166 176 171 156 130 108 147 213 166 87 87 148 162 164 155 146 155 143 127 117 116 143 162 172 170 167 147 147 131 129 62 42 96 225 341 108 155 124 146 173 152 72 18 96 128 130 97 62 42 26 34 42 60 77 55 293 254 228 195 190 266 281 265 247 225 228 262 303 328 1 53 119 144 147 155 208
207 203 200 195 188 189 193 182 168 160 155 154 157 159 156 138 84 133 188 206 103 104 92 129 168 154 154 152 153 151 102 64 135 139 142 153 157 158 141 136 72 77 45 29 50 327 350 55 211 129 132 127 109 60 23 40 93 101 81 77 58 356 12 16 1 48 88 256 263 254 204 175 234 260 251 252 253 242 241 278 317 39 104 115 126 136 166 214
204 199 197 202 197 189 191 188 174 160 157 153 152 154 146 101 227 204 203 132 129 189 160 162 180 159 160 152 145 154 112 109 167 151 140 146 163 183 170 176 145 96 187 196 144 332 331 263 246 76 116 141 110 69 22 6 31 75 90 95 82 344 10 2 310 290 230 245 261 297 233 196 234 242 249 266 270 257 221 188 185 166 136 123 121 153 250 244
199 195 193 202 212 205 196 193 184 167 156 153 153 150 125 108 212 210 214 197 182 184 154 149 159 156 154 147 159 160 108 136 182 164 150 143 166 206 237 226 174 131 177 183 146 144 287 305 311 80 316 199 148 124 127 295 128 128 134 130 130 141 141 256 260 276 268 258 273 324 333 264 281 260 234 245 258 272 294 185 178 160 142 121 22 323 305 297
197 194 190 197 212 218 210 205 197 178 159 160 156 138 130 191 208 175 187 235 171 117 114 124 135 147 156 161 176 162 98 127 176 148 134 137 156 205 241 249 207 108 107 151 157 168 193 289 220 173 196 186 178 178 164 153 168 182 156 137 154 162 165 201 206 209 247 273 290 302 269 210 231 271 237 236 262 283 298 280 206 213 178 52 325 312 320 323
196 196 190 193 205 213 218 217 203 185 177 170 151 134 183 201 204 157 186 220 147 74 91 118 124 140 176 190 173 174 146 169 181 146 144 166 172 191 197 212 204 156 132 164 203 167 175 251 233 206 174 170 180 194 158 125 135 231 141 118 180 191 154 151 191 182 177 303 289 254 236 212 212 273 272 263 269 280 290 291 286 269 218 293 304 301 329 337
197 199 196 199 200 204 216 219 207 192 181 163 134 184 199 202 192 172 184 180 154 128 110 114 117 137 179 188 183 195 176 129 170 158 177 192 196 195 195 207 198 188 171 170 188 158 162 268 273 257 175 180 181 182 161 146 177 202 152 172 207 179 127 124 255 334 93 250 267 211 248 280 322 290 282 281 275 284 291 291 292 286 283 315 320 334 347 347
198 199 203 206 198 199 209 215 218 202 174 152 153 207 203 262 212 189 25 90 145 137 125 133 153 147 166 176 189 195 176 121 164 172 188 201 229 201 200 226 203 194 193 181 195 189 155 240 303 132 206 248 210 161 120 71 133 136 187 208 180 95 86 110 223 348 47 248 276 235 241 276 324 276 302 352 340 303 287 272 273 277 298 331 334 352 7 78
203 206 208 210 203 197 199 207 215 203 169 146 178 215 197 280 232 239 5 35 128 127 132 162 168 147 167 180 185 185 168 156 178 188 180 191 240 202 185 209 205 200 201 186 196 226 144 186 298 51 197 273 345 144 181 355 83 139 182 188 123 117 248 115 166 200 158 241 277 271 253 252 214 225 290 316 298 288 273 257 259 272 331 346 337 350 360 83
206 210 215 215 210 204 196 194 194 188 165 139 189 209 194 219 244 248 233 53 74 135 153 179 162 150 174 172 165 175 175 172 178 185 176 183 232 209 183 188 202 202 197 180 183 232 140 175 258 311 228 280 17 158 194 253 347 51 91 118 103 134 173 172 171 166 158 204 255 274 286 257 225 196 191 231 251 258 255 251 223 69 15 345 341 349 335 349
171 180 213 208 207 212 203 181 174 169 147 158 187 183 167 186 237 235 224 202 32 78 157 181 103 151 174 157 143 169 175 172 173 181 193 187 213 248 195 187 188 195 191 184 185 199 129 183 222 301 338 204 183 210 189 173 169 153 149 180 196 93 114 178 196 141 142 169 209 260 274 264 241 196 191 212 230 220 194 156 141 29 345 339 3 17 334 15
143 153 210 170 183 204 190 168 159 159 141 177 182 173 176 173 208 228 227 221 221 46 95 84 79 134 149 124 130 169 159 161 171 179 202 194 197 240 210 196 190 173 173 185 197 194 185 183 170 178 292 198 222 243 206 184 183 175 175 188 187 164 130 156 243 255 136 180 183 178 266 271 244 186 187 181 166 163 152 137 275 324 348 12 46 51 16 7
149 132 169 161 175 191 179 162 150 175 177 185 179 179 189 179 182 210 219 215 217 218 81 77 125 152 135 121 127 114 138 163 183 185 196 201 190 192 231 230 201 176 156 176 205 193 160 117 119 178 216 214 241 268 229 188 192 197 207 191 174 169 147 155 215 238 176 233 211 140 262 274 238 155 154 155 151 160 307 334 351 7 8 1 354 347 344 343
161 135 138 166 183 183 176 182 193 175 192 183 170 175 184 179 173 190 196 198 202 187 156 203 200 179 187 117 121 116 130 157 181 178 188 203 198 218 298 279 188 174 157 170 204 180 143 118 129 216 304 324 313 327 358 40 107 194 243 182 138 188 170 153 183 180 163 220 214 160 249 265 242 143 157 189 316 334 3 16 15 18 7 345 332 333 330 326
172 169 150 177 186 180 180 199 193 193 200 145 161 191 195 195 185 176 178 187 189 167 174 207 201 198 215 124 130 174 170 160 179 177 184 190 199 265 338 63 145 152 149 168 181 175 182 182 139 136 333 333 335 343 340 335 358 199 231 190 174 185 154 128 165 137 203 223 190 174 238 256 259 86 60 8 357 356 24 35 5 347 22 340 316 316 312 305
171 194 208 206 196 190 194 211 167 194 193 166 183 199 191 202 198 186 179 182 185 172 172 197 193 192 192 110 120 191 189 175 188 173 171 218 262 312 352 18 81 95 111 128 148 164 178 187 150 161 197 216 219 214 221 239 194 208 229 195 189 180 161 162 176 170 230 230 194 189 237 257 260 105 54 1 30 36 359 4 339 301 316 313 307 308 305 299
173 196 208 213 209 207 219 237 188 141 177 186 196 195 188 198 198 189 184 182 188 181 169 179 175 169 167 151 172 218 223 206 196 183 171 201 273 314 344 345 44 105 115 100 108 136 138 233 178 172 198 204 197 208 206 158 151 198 221 202 195 187 173 162 148 191 221 228 225 226 233 257 266 258 253 265 75 56 310 295 293 294 299 304 308 310 309 307
181 203 190 172 201 221 229 236 218 183 176 191 191 186 189 192 185 187 194 202 195 184 172 172 169 166 176 179 179 206 218 203 188 220 218 201 232 331 350 347 27 111 136 101 82 98 92 303 227 155 201 199 177 187 139 111 170 205 207 203 204 191 171 171 198 213 204 202 240 239 224 245 265 264 260 258 223 234 258 259 272 281 290 300 303 302 300 299
201 251 214 182 175 192 206 222 214 205 218 210 198 176 178 188 193 180 192 212 203 188 179 187 195 191 183 176 170 181 192 184 199 221 219 199 193 20 7 340 358 17 129 97 76 99 110 240 252 187 239 229 201 220 138 98 200 215 191 197 201 192 180 192 219 224 195 197 242 248 219 230 256 265 268 262 160 248 265 267 268 273 281 289 291 291 291 291
215 258 233 206 212 202 188 188 181 194 216 224 221 206 179 190 198 187 170 171 199 205 194 189 203 201 189 178 175 176 176 181 206 216 199 181 191 167 71 323 328 333 31 92 95 112 138 214 223 188 257 262 243 245 242 182 205 248 237 216 192 199 206 210 228 236 224 233 259 269 261 251 251 264 282 287 266 265 278 283 279 276 276 278 281 284 287 289
211 227 230 222 240 236 196 177 158 180 211 216 230 245 205 196 199 193 173 166 177 200 198 202 206 195 189 185 185 196 195 189 202 202 169 162 189 191 188 188 178 300 36 96 108 123 170 205 171 134 234 265 254 250 254 232 218 236 251 247 232 230 229 226 233 241 247 256 260 263 268 267 261 267 286 284 281 282 287 284 281 279 278 278 281 284 286 288
209 212 228 241 246 238 211 181 162 167 196 207 219 223 225 218 198 185 185 188 186 178 187 204 203 180 190 196 194 211 209 190 187 186 180 186 194 194 195 178 154 149 139 140 143 144 165 179 104 121 195 250 244 233 242 247 247 250 248 240 235 236 239 235 225 211 219 235 248 257 263 266 268 265 271 278 283 285 275 276 277 279 280 283 284 285 287 287
208 210 223 234 255 238 212 169 166 181 196 205 212 211 216 229 181 169 185 202 196 194 198 200 189 165 193 203 205 214 210 183 141 127 157 172 162 143 140 141 145 152 163 160 149 159 158 150 148 152 190 245 234 191 196 205 202 245 238 230 228 231 237 243 241 231 223 220 231 246 246 255 271 276 267 274 280 274 269 273 276 279 283 289 290 289 290 291